This is the latest recevied weather packets stored in our database for station/object PA3TA-2. If no packets are shown the sender has not sent any weather packets the latest 10 day(s).
| Time | Temp. | Humidity | Pressure | Rain* | Wind** | Luminosity | Snow |
|---|---|---|---|---|---|---|---|
| 1788178676 | 21.67° C | 69% | 1012 hPa | 3.56 mm | - | - | - |
| 1788178372 | 22.22° C | 69% | 1012.1 hPa | 2.03 mm | - | - | - |
| 1788178070 | 22.22° C | 70% | 1012.1 hPa | 1.02 mm | - | - | - |
| 1788177756 | 22.22° C | 71% | 1011.9 hPa | 0 mm | - | - | - |
| 1788177452 | 22.22° C | 71% | 1011.9 hPa | 0 mm | - | - | - |
| 1788177149 | 22.22° C | 72% | 1012 hPa | 0 mm | - | - | - |
| 1788176846 | 21.67° C | 73% | 1011.8 hPa | 0 mm | - | - | - |
| 1788176543 | 21.67° C | 73% | 1011.9 hPa | 0 mm | - | - | - |
| 1788176239 | 21.11° C | 73% | 1011.8 hPa | 0 mm | - | - | - |
| 1788175936 | 21.11° C | 73% | 1011.9 hPa | 0 mm | - | - | - |
| 1788175633 | 21.11° C | 73% | 1011.9 hPa | 0 mm | - | - | - |
| 1788175503 | 21.11° C | 72% | 1011.8 hPa | 2.79 mm | - | - | - |
| 1788175200 | 21.11° C | 72% | 1011.8 hPa | 2.79 mm | - | - | - |
| 1788174885 | 21.11° C | 71% | 1011.7 hPa | 2.79 mm | - | - | - |
| 1788174582 | 21.11° C | 71% | 1011.6 hPa | 2.79 mm | - | - | - |
| 1788174279 | 21.11° C | 71% | 1011.7 hPa | 2.79 mm | - | - | - |
| 1788173975 | 21.11° C | 71% | 1011.5 hPa | 2.79 mm | - | - | - |
| 1788173672 | 21.67° C | 71% | 1011.5 hPa | 2.79 mm | - | - | - |
| 1788173369 | 21.67° C | 71% | 1011.6 hPa | 2.79 mm | - | - | - |
| 1788173066 | 21.67° C | 70% | 1011.5 hPa | 2.79 mm | - | - | - |
| 1788172763 | 21.67° C | 70% | 1011.4 hPa | 2.79 mm | - | - | - |
| 1788172449 | 21.67° C | 69% | 1011.4 hPa | 2.79 mm | - | - | - |
| 1788172146 | 21.67° C | 68% | 1011.4 hPa | 2.79 mm | - | - | - |
| 1788171842 | 21.67° C | 68% | 1011.4 hPa | 2.03 mm | - | - | - |
| 1788171539 | 21.67° C | 68% | 1011.1 hPa | 2.03 mm | - | - | - |
* Rain since midnight (hover to see other rain measurements)
** Current wind speed in m/s (hover to see current wind gust speed)